EDVEEDLP

Guest
Details From EDVE - Braunschweig
To EDLP - Paderborn Lippstadt
Flight Number -
Tags Generated
Created
Modified
Stats Distance 84 nm / 155 km
Max Altitude 0 ft / 0 m
Waypoints 2
Social Downloads 1
Likes 0
Share VATSIM

Download

Looking for another format? Having issues loading an existing format? Contact us
Advertisement - Login to hide

Notes

Generated

Route

EDVE EDLP

ID Type Via Altitude Latitude Longitude Leg Dist Tot Dist Heading (true) Name
O EDVE APT - 0 ft / 0 m 52.31741˚ 10.54852˚ - 0 nm - Braunschweig-Wolfsburg
O EDLP APT - 0 ft / 0 m 51.60888˚ 8.60309˚ 83 nm 83 nm 240° / 239° -

Altitude Profile

Advertisement - Login to hide

EDVE

Details ICAO EDVE (BWE)
Name Braunschweig-Wolfsburg
Region Germany - Civil
Timezone Europe/Berlin (UTC+2.0)
Stats Elevation 295 ft / 90 m (AMSL)
Location 52.318435° 10.554742°
Runways 2
Magnetic Variation 2.998° E

METAR

EDVE 201420Z 09009KT 060V120 CAVOK 22/03 Q1023

Decode

TAF

Not found

Departure Runways

ID Width Length Bearing (true) Bearing (mag) Surface Threshold Offset Overrun Length
08 98 ft / 30 m 5,496 ft / 1,675 m 84.98° 81.98° Asphalt 984 ft / 300 m 0 ft / 0 m
08R 98 ft / 30 m 2,950 ft / 899 m 84.56° 81.56° Grass 0 ft / 0 m 0 ft / 0 m
26 98 ft / 30 m 5,496 ft / 1,675 m 265.00° 262.00° Asphalt 591 ft / 180 m 190 ft / 58 m
26L 98 ft / 30 m 2,950 ft / 899 m 264.57° 261.57° Grass 0 ft / 0 m 0 ft / 0 m

EDLP

Details ICAO EDLP (PAD)
Name Paderborn Lippstadt
Region Germany - Civil
Timezone Europe/Berlin (UTC+2.0)
Stats Elevation 699 ft / 213 m (AMSL)
Location 51.614166° 8.616336°
Runways 1
Magnetic Variation 2.415° E

METAR

EDLP 201420Z 10009KT 050V130 CAVOK 23/06 Q1021

Decode

TAF

TAF EDLP 201100Z 2012/2112 08010KT CAVOK BECMG 2018/2020 09005KT BECMG 2105/2108 11011KT PROB30 TEMPO 2111/2112 10015G25KT

Decode

Destination Runways

ID Width Length Bearing (true) Bearing (mag) Surface Threshold Offset Overrun Length
06 148 ft / 45 m 7,136 ft / 2,175 m 57.28° 54.86° Asphalt 0 ft / 0 m 1,066 ft / 325 m
24 148 ft / 45 m 7,136 ft / 2,175 m 237.30° 234.88° Asphalt 0 ft / 0 m 397 ft / 121 m

Approach Navaids

Runway Type Ident Frequency Range Bearing (true) Bearing (mag) Slope Elevation
06 Localiser IPLE 111.70 MHz 18 nm / 33 km 57.13° 54.72° - 674 ft / 205 m (AMSL)
06 Glidescope IPLE 111.70 MHz 10 nm / 19 km 57.29° 54.87° 3.00° 699 ft / 213 m (AMSL)
24 Localiser IPLW 108.55 MHz 18 nm / 33 km 236.80° 234.38° - 699 ft / 213 m (AMSL)
24 Glidescope IPLW 108.55 MHz 10 nm / 19 km 237.29° 234.87° 3.00° 674 ft / 205 m (AMSL)